• In Kazakhstan
  • List of Countries
  • For 7 days
  • Water Temperature
  • Weather Map
  • News
  • Weather Widgets
  • user-avatar
    Login

    Hourly Weather Worcester

    Today, 4 April, Saturday

    Time Temperature Precipitation Wind Pressure Humidity
    00:00 +4°C° 0 mm 2 mps 760 mmHg 92%
    01:00 +4°C° 0 mm 2 mps 760 mmHg 92%
    02:00 +5°C° 0 mm 1 mps 760 mmHg 93%
    03:00 +5°C° 0 mm 1 mps 760 mmHg 93%
    04:00 +5°C° 0 mm 1 mps 760 mmHg 93%
    05:00 +3°C° 0 mm 2 mps 760 mmHg 94%
    06:00 +3°C° 0 mm 2 mps 759 mmHg 94%
    07:00 +5°C° 0 mm 2 mps 759 mmHg 90%
    08:00 +7°C° 0 mm 3 mps 760 mmHg 85%
    09:00 +8°C° 0 mm 4 mps 760 mmHg 80%
    10:00 +10°C° 0.1 mm 4 mps 760 mmHg 76%
    11:00 +10°C° 0.1 mm 5 mps 760 mmHg 71%
    12:00 +13°C° 0.1 mm 5 mps 759 mmHg 67%
    13:00 +13°C° 0.1 mm 5 mps 759 mmHg 67%
    14:00 +13°C° 0.1 mm 5 mps 759 mmHg 67%
    15:00 +13°C° 0.1 mm 5 mps 759 mmHg 67%
    16:00 +12°C° 0 mm 5 mps 758 mmHg 70%
    17:00 +11°C° 0 mm 4 mps 758 mmHg 74%
    18:00 +11°C° 0 mm 3 mps 758 mmHg 78%
    19:00 +9°C° 0 mm 3 mps 758 mmHg 81%
    20:00 +8°C° 0 mm 3 mps 758 mmHg 85%
    21:00 +5°C° 0 mm 3 mps 758 mmHg 88%
    22:00 +5°C° 0 mm 3 mps 758 mmHg 89%
    23:00 +5°C° 0 mm 3 mps 758 mmHg 91%

    Tomorrow, 5 April, Sunday

    Time Temperature Precipitation Wind Pressure Humidity
    00:00 +5°C° 0 mm 3 mps 758 mmHg 92%
    01:00 +5°C° 0 mm 3 mps 757 mmHg 92%
    02:00 +5°C° 0 mm 4 mps 757 mmHg 92%
    03:00 +5°C° 0 mm 4 mps 756 mmHg 92%
    04:00 +5°C° 0 mm 4 mps 756 mmHg 92%
    05:00 +5°C° 0 mm 4 mps 755 mmHg 93%
    06:00 +5°C° 0 mm 4 mps 755 mmHg 93%
    07:00 +7°C° 0 mm 5 mps 755 mmHg 88%
    08:00 +9°C° 0 mm 6 mps 754 mmHg 83%
    09:00 +10°C° 0 mm 7 mps 754 mmHg 78%
    10:00 +12°C° 0 mm 7 mps 753 mmHg 74%
    11:00 +15°C° 0 mm 7 mps 753 mmHg 70%
    12:00 +16°C° 0 mm 8 mps 753 mmHg 66%
    13:00 +16°C° 0 mm 8 mps 752 mmHg 67%
    14:00 +16°C° 0 mm 8 mps 752 mmHg 68%
    15:00 +16°C° 0 mm 8 mps 751 mmHg 70%
    16:00 +15°C° 0 mm 8 mps 751 mmHg 73%
    17:00 +14°C° 0 mm 7 mps 751 mmHg 77%
    18:00 +13°C° 0 mm 6 mps 750 mmHg 81%
    19:00 +12°C° 0 mm 7 mps 750 mmHg 81%
    20:00 +11°C° 0 mm 7 mps 750 mmHg 81%
    21:00 +11°C° 0 mm 8 mps 750 mmHg 81%
    22:00 +11°C° 0.1 mm 7 mps 750 mmHg 83%
    23:00 +11°C° 0.1 mm 7 mps 750 mmHg 85%

    Day after tomorrow, 6 April, Monday

    Time Temperature Precipitation Wind Pressure Humidity
    00:00 +11°C° 0.1 mm 7 mps 750 mmHg 88%
    01:00 +10°C° 0.3 mm 6 mps 750 mmHg 89%
    02:00 +10°C° 0.3 mm 5 mps 751 mmHg 89%
    03:00 +10°C° 0.3 mm 4 mps 751 mmHg 90%
    04:00 +8°C° 0 mm 4 mps 752 mmHg 91%
    05:00 +7°C° 0 mm 4 mps 752 mmHg 92%
    06:00 +7°C° 0 mm 3 mps 753 mmHg 94%
    07:00 +7°C° 0 mm 4 mps 754 mmHg 89%
    08:00 +8°C° 0 mm 4 mps 755 mmHg 84%
    09:00 +10°C° 0 mm 5 mps 755 mmHg 79%
    10:00 +12°C° 0.1 mm 5 mps 756 mmHg 74%
    11:00 +13°C° 0.1 mm 5 mps 757 mmHg 70%
    12:00 +14°C° 0.1 mm 5 mps 758 mmHg 65%
    13:00 +14°C° 0.1 mm 5 mps 758 mmHg 64%
    14:00 +13°C° 0.1 mm 5 mps 759 mmHg 64%
    15:00 +13°C° 0.1 mm 5 mps 759 mmHg 63%
    16:00 +12°C° 0 mm 4 mps 760 mmHg 67%
    17:00 +11°C° 0 mm 4 mps 761 mmHg 70%
    18:00 +10°C° 0 mm 3 mps 761 mmHg 74%
    19:00 +9°C° 0 mm 2 mps 762 mmHg 76%
    20:00 +7°C° 0 mm 2 mps 763 mmHg 79%
    21:00 +5°C° 0 mm 2 mps 764 mmHg 82%
    22:00 +6°C° 0 mm 1 mps 765 mmHg 84%
    23:00 +5°C° 0 mm 1 mps 765 mmHg 85%

    7 April, Tuesday

    Time Temperature Precipitation Wind Pressure Humidity
    00:00 +5°C° 0 mm 1 mps 766 mmHg 86%
    01:00 +5°C° 0 mm 1 mps 766 mmHg 87%
    02:00 +4°C° 0 mm 1 mps 766 mmHg 87%
    03:00 +4°C° 0 mm 1 mps 766 mmHg 88%
    04:00 +4°C° 0 mm 1 mps 767 mmHg 88%
    05:00 +4°C° 0 mm 1 mps 767 mmHg 88%
    06:00 +4°C° 0 mm 1 mps 767 mmHg 88%
    07:00 +6°C° 0 mm 1 mps 768 mmHg 81%
    08:00 +8°C° 0 mm 1 mps 768 mmHg 75%
    09:00 +9°C° 0 mm 2 mps 768 mmHg 69%
    10:00 +10°C° 0 mm 2 mps 768 mmHg 65%
    11:00 +13°C° 0 mm 2 mps 768 mmHg 61%
    12:00 +13°C° 0 mm 3 mps 768 mmHg 58%
    13:00 +13°C° 0 mm 3 mps 768 mmHg 58%
    14:00 +14°C° 0 mm 3 mps 767 mmHg 59%
    15:00 +14°C° 0 mm 3 mps 767 mmHg 59%
    16:00 +13°C° 0 mm 3 mps 767 mmHg 64%
    17:00 +13°C° 0 mm 2 mps 767 mmHg 70%
    18:00 +13°C° 0 mm 2 mps 767 mmHg 75%
    19:00 +11°C° 0 mm 1 mps 767 mmHg 78%
    20:00 +10°C° 0 mm 1 mps 767 mmHg 82%
    21:00 +8°C° 0 mm 1 mps 768 mmHg 85%
    22:00 +8°C° 0 mm 1 mps 768 mmHg 86%
    23:00 +7°C° 0 mm 1 mps 767 mmHg 87%

    8 April, Wednesday

    Time Temperature Precipitation Wind Pressure Humidity
    00:00 +6°C° 0 mm 1 mps 767 mmHg 88%
    01:00 +6°C° 0 mm 1 mps 767 mmHg 89%
    02:00 +6°C° 0 mm 1 mps 767 mmHg 89%
    03:00 +6°C° 0 mm 1 mps 767 mmHg 89%
    04:00 +6°C° 0 mm 1 mps 767 mmHg 89%
    05:00 +6°C° 0 mm 1 mps 767 mmHg 88%
    06:00 +6°C° 0 mm 1 mps 767 mmHg 87%
    07:00 +8°C° 0 mm 1 mps 766 mmHg 83%
    08:00 +10°C° 0 mm 1 mps 766 mmHg 78%
    09:00 +13°C° 0 mm 1 mps 766 mmHg 74%
    10:00 +14°C° 0 mm 2 mps 766 mmHg 72%
    11:00 +16°C° 0 mm 2 mps 766 mmHg 70%
    12:00 +17°C° 0 mm 3 mps 766 mmHg 68%
    13:00 +18°C° 0.1 mm 3 mps 765 mmHg 69%
    14:00 +18°C° 0.1 mm 3 mps 765 mmHg 70%
    15:00 +18°C° 0.1 mm 4 mps 765 mmHg 71%
    16:00 +17°C° 0.1 mm 3 mps 765 mmHg 75%
    17:00 +17°C° 0.1 mm 3 mps 764 mmHg 79%
    18:00 +16°C° 0.1 mm 3 mps 764 mmHg 83%
    19:00 +13°C° 0 mm 3 mps 764 mmHg 85%
    20:00 +13°C° 0 mm 2 mps 764 mmHg 87%
    21:00 +10°C° 0 mm 2 mps 765 mmHg 89%
    22:00 +9°C° 0 mm 2 mps 764 mmHg 89%
    23:00 +9°C° 0 mm 2 mps 764 mmHg 89%

    9 April, Thursday

    Time Temperature Precipitation Wind Pressure Humidity
    00:00 +8°C° 0 mm 2 mps 764 mmHg 89%
    01:00 +8°C° 0 mm 2 mps 764 mmHg 89%
    02:00 +7°C° 0 mm 2 mps 763 mmHg 89%
    03:00 +7°C° 0 mm 2 mps 763 mmHg 90%
    04:00 +7°C° 0 mm 2 mps 763 mmHg 90%
    05:00 +7°C° 0 mm 2 mps 763 mmHg 91%
    06:00 +7°C° 0 mm 2 mps 763 mmHg 92%
    07:00 +9°C° 0 mm 2 mps 763 mmHg 88%
    08:00 +12°C° 0 mm 2 mps 762 mmHg 84%
    09:00 +13°C° 0 mm 3 mps 762 mmHg 81%
    10:00 +15°C° 0 mm 4 mps 762 mmHg 75%
    11:00 +17°C° 0 mm 5 mps 762 mmHg 70%
    12:00 +19°C° 0 mm 6 mps 761 mmHg 65%
    13:00 +19°C° 0 mm 6 mps 761 mmHg 63%
    14:00 +20°C° 0 mm 6 mps 760 mmHg 62%
    15:00 +20°C° 0 mm 6 mps 760 mmHg 61%
    16:00 +19°C° 0 mm 5 mps 760 mmHg 66%
    17:00 +17°C° 0 mm 4 mps 759 mmHg 70%
    18:00 +15°C° 0 mm 4 mps 759 mmHg 75%
    19:00 +14°C° 0 mm 3 mps 759 mmHg 78%
    20:00 +12°C° 0 mm 3 mps 759 mmHg 81%
    21:00 +11°C° 0 mm 3 mps 759 mmHg 84%
    22:00 +10°C° 0 mm 2 mps 759 mmHg 85%
    23:00 +10°C° 0 mm 2 mps 759 mmHg 86%
    Show more